Regional Weather Roundup
Issued by NWS

Home | Current Version | Previous Version | Graphics & Text | Print | Product List | Glossary On
Versions: 1 2 3 4 5 6 7 8 9 10 11 12 13 14 15 16 17 18 19 20 21 22 23 24 25 26 27 28 29 30 31 32 33 34 35 36 37 38 39 40 41 42 43 44 45 46 47 48 49 50
000
ASUS43 KLOT 110611
RWRIL

ILLINOIS REGIONAL WEATHER ROUNDUP
NATIONAL WEATHER SERVICE CHICAGO/ROMEOVILLE IL
1200 AM CST SUN DEC 11 2016

NOTE: "FAIR" INDICATES FEW OR NO CLOUDS BELOW 12,000 FEET WITH NO
SIGNIFICANT WEATHER AND/OR OBSTRUCTIONS TO VISIBILITY.

* THESE STATIONS ARE NOT UNDER NWS QUALITY CONTROL. THEY ALSO MAY NOT
  REPORT WEATHER SUCH AS PRECIPITATION OR FOG.

ILZ001-002-007-009-015-016-024-110700-
NORTHWEST ILLINOIS

CITY           SKY/WX    TMP DP  RH WIND       PRES   REMARKS
MOLINE         CLOUDY    26  20  77 SE10      30.15F WCI  16
6HR MIN TEMP:  23; 6HR MAX TEMP:  26;

STERLING*      MOCLDY    25  22  88 SE9       30.19F WCI  15
SAVANNA*       CLOUDY    24  20  85 E7        30.19F WCI  16
$$

ILZ003-004-008-010-011-017-018-110700-
NORTH CENTRAL ILLINOIS

CITY           SKY/WX    TMP DP  RH WIND       PRES   REMARKS
ROCKFORD       LGT SNOW  23  20  88 SE13      30.24F FOG     WCI  11
6HR MIN TEMP:  21; 6HR MAX TEMP:  23; 6HR PCP:  0.05;

FREEPORT*      LGT SNOW  22  20  91 SE8       30.21F WCI  13
ROCHELLE*      CLOUDY    24  21  91 SE16      30.21F WCI  10
DE KALB*       LGT SNOW  23  21  93 SE13      30.22F WCI  11
$$

ILZ005-006-012>014-019>023-110700-
NORTHEAST ILLINOIS

CITY           SKY/WX    TMP DP  RH WIND       PRES   REMARKS
CHICAGO-OHARE  LGT SNOW  23  20  88 S13       30.26F FOG     WCI  11
6HR MIN TEMP:  21; 6HR MAX TEMP:  23; 6HR PCP:  0.10;

CHICAGO-MIDWAY LGT SNOW  25  19  78 S8        30.28F FOG     WCI  16
6HR MIN TEMP:  23; 6HR MAX TEMP:  25; 6HR PCP:  0.08;

AURORA         LGT SNOW  25  20  81 SE12      30.24F WCI  14
6HR MIN TEMP:  23; 6HR MAX TEMP:  25; 6HR PCP: TRACE;

LANSING*       FLURRIES  24  22  94 SE10      30.29F WCI  13
JOLIET*        LGT SNOW  26  23  91 SE10      30.26F WCI  15
WAUKEGAN       LGT SNOW  23  20  88 S10       30.26F FOG     WCI  12
6HR MIN TEMP:  21; 6HR MAX TEMP:  23; 6HR PCP: TRACE;

DUPAGE AIRPORT LGT SNOW  23  19  85 SE12      30.25F FOG     WCI  12
6HR MIN TEMP:  22; 6HR MAX TEMP:  23; 6HR PCP:  0.05;

KANKAKEE*      MIX PCPN  25  22  89 SE10      30.29F WCI  15
WHEELING       FLURRIES  23  20  88 S9        30.29F WCI  13
6HR MIN TEMP:  21; 6HR MAX TEMP:  23; 6HR PCP:  0.06;

MORRIS*        FLURRIES  25  22  88 SE13      30.23F WCI  14
ROMEOVILLE*    LGT RAIN  24  24  99 SE13      30.26F WCI  12
NORTHERLY ISL    N/A     24  22  91 SE10        N/A  WCI  14
$$

LMZ740>746-110700-
SOUTHERN LAKE MICHIGAN

STATION/POSITION SKY/WX   TEMP    WIND        PRES    VSBY  WAVE
                          AIR SEA DIR/SP/G                  HT/PER
                          (F)     (DEG/KT/KT) (MB)    (MI)  (FT/S)
BURNHAM HARBOR             24     190/  8/ 12   N/A
CALUMET HARBOR             24     170/  8/ 13 1025.4F
BURNS HARBOR               24     170/  9/ 15 1026.8F
$$

ILZ025>027-034>036-040-047-049-050-058-095>099-110700-
WEST-CENTRAL ILLINOIS

CITY           SKY/WX    TMP DP  RH WIND       PRES   REMARKS
QUINCY         CLOUDY    33  18  53 S12       30.11F WCI  24
GALESBURG*     CLOUDY    28  22  78 SE9       30.14S WCI  19
MACOMB*        CLOUDY    30  22  72 SE13      30.15F WCI  20
JACKSONVILLE*  CLOUDY    33  19  57 S13G18    30.15F WCI  24
PITTSFIELD*    CLOUDY    34  19  55 S12       30.13F WCI  25
$$

ILZ028>032-037-038-041>044-048-051>054-059>061-110700-
CENTRAL ILLINOIS

CITY           SKY/WX    TMP DP  RH WIND       PRES   REMARKS
PONTIAC        CLOUDY    27  26  96 SE15      30.23F WCI  15
BLOOMINGTON    CLOUDY    25  22  88 SE17G26   30.20F WCI  12
DECATUR        CLOUDY    30  19  63 S15       30.22F WCI  19
PEORIA         CLOUDY    28  22  78 SE9       30.18F WCI  19
6HR MIN TEMP:  24; 6HR MAX TEMP:  28; 6HR PCP: TRACE;

LACON*         CLOUDY    27  23  86 SE13      30.19F WCI  16
LINCOLN*       CLOUDY    31  23  71 SE17      30.18F WCI  19
SPRINGFIELD    CLOUDY    33  18  53 SE21G28   30.16F WCI  21
6HR MIN TEMP:  31; 6HR MAX TEMP:  33;

TAYLORVILLE    CLOUDY    31  20  63 SE10G16   30.20F WCI  23
6HR MIN TEMP:  29; 6HR MAX TEMP:  31;

$$

ILZ033-039-045-046-055>057-062-063-110700-
EAST-CENTRAL ILLINOIS

CITY           SKY/WX    TMP DP  RH WIND       PRES   REMARKS
CHAMPAIGN      CLOUDY    27  22  81 SE17      30.23F WCI  14
RANTOUL*       FLURRIES  28  25  91 SE16      30.24F WCI  15
MATTOON        CLOUDY    29  18  63 SE15      30.24F WCI  18
PARIS*         CLOUDY    28  22  79 SE12      30.29F WCI  18
$$

ILZ079-100>102-110700-
SOUTHWEST ILLINOIS

CITY           SKY/WX    TMP DP  RH WIND       PRES   REMARKS
ALTON          CLOUDY    34  20  57 SE9       30.21F WCI  26
BELLEVILLE     CLOUDY    35  21  55 S7        30.20F WCI  29
CAHOKIA*       CLOUDY    36  19  50 S7        30.21S WCI  30
SPARTA*        CLOUDY    37  18  46 S10       30.21F WCI  29
$$

ILZ064>066-069>071-074>076-080>082-084>086-088>090-092>094-110700-
SOUTH-CENTRAL ILLINOIS

CITY           SKY/WX    TMP DP  RH WIND       PRES   REMARKS
CARBONDALE     CLOUDY    37  18  46 S15       30.25F WCI  28
6HR MIN TEMP:  34; 6HR MAX TEMP:  37;

CAIRO*         CLOUDY    37  19  49 S8        30.29F WCI  31
EFFINGHAM*     CLOUDY    32  22  68 SE9       30.28F WCI  24
MARION         CLOUDY    37  18  44 S14       30.27F WCI  29
CENTRALIA*     CLOUDY    35  21  57 SE10      30.23F WCI  27
SALEM*         CLOUDY    34  19  54 SE6       30.24F WCI  29
METROPOLIS*    CLOUDY    37  19  47 S3        30.29F
$$

ILZ067-068-072-073-078-083-087-091-110700-
SOUTHEAST ILLINOIS

CITY           SKY/WX    TMP DP  RH WIND       PRES   REMARKS
LAWRENCEVILLE  CLOUDY    31  22  69 E6        30.32F WCI  25
FLORA*         CLOUDY    33  22  64 SE8       30.27F WCI  26
FAIRFIELD*     CLOUDY    33  21  63 SE3       30.27F
HARRISBURG*    CLOUDY    33  25  71 SE5       30.29F WCI  29
ROBINSON*      CLOUDY    30  21  70 E5        30.33F WCI  25
CARMI*         CLOUDY    33  23  68 SE9       30.29F WCI  25
$$

ABBREVIATIONS USED IN REMARKS
   TC - TEMPERATURE IN CELSIUS
  WCI - WIND CHILL INDEX
   HX - HEAT INDEX
  VSB - VISIBILITY
$$





USA.gov is the U.S. government's official web portal to all federal, state and local government web resources and services.